Location: Chevoux
(46.3801°N, 4.9476°E)
Time: 22:52:39
(UTC+00:00)

Cosmos 468 - Pass Details

Date: 28 January 2021
Orbit: 761 x 784 km, 74.0° (Epoch: 04 March)

Event Time Altitude Azimuth Distance (km) Brightness Sun altitude
Rises 18:30:25 0° 340° (NNW) 3,245 7.9 -19.2°
Reaches altitude 10° 18:32:50 10° 343° (NNW) 2,317 7.1 -19.7°
Maximum altitude 18:38:04 67° 66° (ENE) 839 4.4 -20.5°
Enters shadow 18:41:12 24° 143° (SE) 1,547 5.8 -21.1°
